Home > Weather > Red Deer > Past weeks

Flag for Canada Past Weather in Red Deer, Alberta, Canada — Yesterday and Last 2 Weeks

Now
59 °F

Broken clouds.


Feels Like: 57 °F
Forecast: 51 / 70 °F
Wind: 12 mph from West

Location: Red Deer

Current Time: Jun 25, 2016 at 8:57:58 PM

Latest Report: Jun 25, 2016 at 8:00 PM


Visibility: 15 mi

Pressure: 30.03 "Hg (27.13 "Hg at 857m altitude)

Humidity: 82%

Dew Point: 54 °F

Location of Red DeerLocation

Past Weather in Red Deer — Graph

°F

Red Deer Temperature Yesterday

Maximum temperature yesterday: 66 °F (at 2:00 PM)
Minimum temperature yesterday: 48 °F (at 3:00 AM)
Average temperature yesterday: 58 °F

High & Low Weather Summary for the Past Weeks

 TemperatureHumidityPressure
High73 °F (Jun 20, 2:00 PM)100% (Jun 15, 2:00 AM)30.27 "Hg (Jun 15, 2:00 AM)
Low36 °F (Jun 15, 5:00 AM)16% (Jun 15, 5:00 PM)29.52 "Hg (Jun 14, 7:00 PM)
Average56 °F64%29.91 "Hg
* Reported Jun 10 7:00 PM — Jun 25 7:00 PM, Red Deer, Weather by CustomWeather, © 2016

Note: Actual official high and low records may vary slightly from our data, if they occured in-between our weather recording intervals... More about our weather records

Advertising

Red Deer Weather History for the Previous 24 Hours

Scroll right to see more
 ConditionsComfort  
Time TempWeatherWind HumidityBarometerVisibility
7:00 PM
Sat, Jun 25
57 °FSprinkles. Partly sunny.3 mph88%30.03 "Hg15 mi
6:00 PM55 °FSprinkles. More clouds than sun.6 mph94%30.04 "Hg10 mi
5:00 PM61 °FScattered showers. Overcast.16 mph77%30.01 "Hg8 mi
4:00 PM70 °FScattered showers. Broken clouds.15 mph50%29.96 "Hg15 mi
3:00 PM68 °FBroken clouds.10 mph64%29.95 "Hg15 mi
2:00 PM64 °FBroken clouds.17 mph68%29.96 "Hg15 mi
1:00 PM61 °FPartly sunny.15 mph72%29.96 "Hg15 mi
12:00 PM59 °FSprinkles. Overcast.15 mph82%29.97 "Hg15 mi
11:00 AM59 °FSprinkles. Overcast.14 mph88%29.96 "Hg8 mi
10:00 AM57 °FSprinkles. More clouds than sun.12 mph88%29.96 "Hg10 mi
9:00 AM55 °FSprinkles. More clouds than sun.12 mph88%29.95 "Hg10 mi
8:00 AM54 °FSprinkles. More clouds than sun.13 mph94%29.94 "Hg7 mi
7:00 AM52 °FSprinkles. Fog.6 mph100%29.93 "Hg3 mi
6:00 AM52 °FSprinkles. Fog.7 mph94%29.91 "Hg6 mi
5:00 AM52 °FSprinkles. Fog.9 mph94%29.90 "Hg3 mi
4:00 AM52 °FSprinkles. Passing clouds.9 mph94%29.88 "Hg15 mi
3:00 AM54 °FPartly cloudy.9 mph88%29.87 "Hg15 mi
2:00 AM54 °FOvercast.8 mph88%29.87 "Hg15 mi
1:00 AM54 °FMostly cloudy.6 mph88%29.88 "Hg15 mi
12:00 AM55 °FMostly cloudy.6 mph82%29.88 "Hg15 mi
11:00 PM
Fri, Jun 24
55 °FPassing clouds.7 mph77%29.88 "Hg15 mi
10:00 PM55 °FPartly sunny.8 mph77%29.88 "Hg15 mi
9:00 PM59 °FPartly sunny.14 mph68%29.87 "Hg15 mi
8:00 PM61 °FBroken clouds.13 mph59%29.86 "Hg15 mi
Weather by CustomWeather, © 2016

See weather overviewHow to use our weather pages